User: anonymous   Login
Location: Unspecified
(0.0000°N, 0.0000°E)
Time: 06:15:05
(UTC+00:00)
Language:

Landsat 2 - Orbit

View from above orbital plane
View from above orbital plane
View from above satellite
View from above satellite

Ground track
Ground track

The orbit data is extracted from the following two-line orbital elements,

1 07615U 75004A   18199.53962699 -.00000067  00000-0 -18073-4 0  9990
2 07615  98.7647 220.6629 0008812  16.6600 343.4851 13.96660594215877
Epoch (UTC): 18 July 2018 12:57:03
Eccentricity: 0.0008812
inclination: 98.7647°
perigee height: 899 km
apogee height: 912 km
right ascension of ascending node: 220.6629°
argument of perigee: 16.6600°
revolutions per day: 13.96660594
mean anomaly at epoch: 343.4851°
orbit number at epoch: 21587

The dashed part of the orbit path shows where the satellite is in the earth's shadow,  

DLR